Regional Weather Roundup
Issued by NWS

Home | Current Version | Previous Version | Graphics & Text | Print | Product List | Glossary On
Versions: 1 2 3 4 5 6 7 8 9 10 11 12 13 14 15 16 17 18 19 20 21 22 23 24 25 26 27 28 29 30 31 32 33 34 35 36 37 38 39 40 41 42 43 44 45 46 47 48 49 50
000
ASUS43 KFSD 200610
RWRSD

WEATHER ROUNDUP FOR SOUTH DAKOTA
NATIONAL WEATHER SERVICE SIOUX FALLS SD
100 AM CDT FRI APR 20 2018

NOTE: "FAIR" INDICATES FEW OR NO CLOUDS BELOW 12,000 FEET WITH NO
SIGNIFICANT WEATHER AND/OR OBSTRUCTIONS TO VISIBILITY.


SDZ001>005-009-010-012>017-200700-
NORTHWEST AND NORTH CENTRAL SOUTH DAKOTA

CITY           SKY/WX    TMP DP  RH WIND       PRES   REMARKS
BUFFALO          N/A     41  31  67 E15       30.13F
FAITH            N/A     37  30  75 SE18      30.24S
MOBRIDGE       CLOUDY    37  25  61 SE8       30.31S
$$

SDZ012>016-024>037-041>051-057-063-072>074-200700-
SOUTHWEST AND SOUTH CENTRAL SOUTH DAKOTA

CITY           SKY/WX    TMP DP  RH WIND       PRES   REMARKS
RAPID CTY ARPT CLOUDY    42  31  64 SE9       30.19R
PIERRE         MOCLDY    36  31  82 SE14      30.30F
CUSTER         CLOUDY    38  24  57 E12       30.17F
ELLSWORTH AFB  CLOUDY    44  32  63 S16       30.19R
PHILIP         CLOUDY    36  30  79 E10       30.25F
PINE RIDGE     CLOUDY    46  28  49 E15G23    30.17S
SPEARFISH      FAIR      43  30  61 E16       30.12F
WINNER         FAIR      36  27  69 SE17      30.31F
$$

SDZ004>011-016>023-039-040-200700-
NORTHEAST SOUTH DAKOTA

CITY           SKY/WX    TMP DP  RH WIND       PRES   REMARKS
ABERDEEN       CLEAR     30  26  85 CALM      30.41S
WATERTOWN      PTCLDY    31  29  92 S5        30.41S WCI  26
BROOKINGS      CLOUDY    30  27  88 SE7       30.44R WCI  23
SISSETON         N/A     40  27  59 SW9       30.41R
$$

SDZ017-020-022-023-036>040-048>070-200700-
SOUTHEAST SOUTH DAKOTA

CITY           SKY/WX    TMP DP  RH WIND       PRES   REMARKS
SIOUX FALLS    CLOUDY    32  23  69 E5        30.44S WCI  27
HURON          CLEAR     32  27  81 SE7       30.41S WCI  26
CHAMBERLAIN    MOCLDY    36  35  94 SE12      30.35F
MITCHELL       CLEAR     33  28  81 SE10      30.42S WCI  25
YANKTON        CLOUDY    32  26  78 E9        30.43R WCI  24
$$

ABBREVIATIONS USED IN REMARKS
   TC - TEMPERATURE IN CELSIUS
  WCI - WIND CHILL INDEX
   HX - HEAT INDEX
  VSB - VISIBILITY





USA.gov is the U.S. government's official web portal to all federal, state and local government web resources and services.